Location: Trebic
(49.2170°N, 15.8830°E)
Time: 20:55:54
(UTC+02:00)

Transit 4A - Pass Details

Date: 01 September 2019
Orbit: 865 x 980 km, 66.8° (Epoch: 21 September)

Event Time Altitude Azimuth Distance (km) Brightness Sun altitude
Rises 17:53:37 0° 231° (SW) 3,671 12.0 16.5°
Reaches altitude 10° 17:56:15 10° 236° (SW) 2,727 11.7 16.0°
Maximum altitude 18:02:31 54° 313° (NW) 1,172 9.1 15.0°
Drops below altitude 10° 18:08:44 10° 31° (NNE) 2,708 10.1 14.0°
Sets 18:11:21 0° 36° (NE) 3,644 10.6 13.6°
